星链-35677(STARLINK-35677)

导读

STARLINK-35677是美国SpaceX公司于2025年10月28日发射的星链低轨通信卫星,是星链星座建设中批量生产的组网卫星。它采用平板设计、搭载以氪为工质的霍尔推进器,支持Ku/Ka波段通信,配备光学星间链路与自主避撞能力,旨在为全球提供低延迟、高速宽带互联网服务,尤其可改善偏远地区网络覆盖,服役寿命末期会主动离轨再入大气层烧毁,减少空间碎片影响。

基本信息
目录编号:
66220
目录名称:
STARLINK-35677
国际标识:
2025-244Q
轨道中心:
EARTH
卫星名称:
星链-35677
卫星全名:
星链-35677(STARLINK-35677)
卫星状态:
在轨 (已飞行311 天)
发射日期:
2025-10-28 UTC
国别 :
美国 (US)
星等 :
--
轨道信息
数据来源 国际轨道数据 AOE轨道数据
星历时间 2026-09-04T12:43:11+0800
14小时前
查看轨道信息
2026-09-01T23:00:00+0800
3天前
查看轨道信息
半长轴 6840.785km 6840.764km
偏心率 0.0002611 0.0001122
轨道倾角 53.157° 53.158°
近地点辐角 83.215° 122.491°
升交点赤经 117.649° 129.675°
平近点角 276.915° 64.317°
近地点 460.861km 461.859km
远地点 464.435km 463.395km
周期 93.847分钟 93.846分钟
每日圈数 15.344188 15.344257
详细信息
固有亮度:
5
最大亮度:
2.5
卫星平台:
Starlink V1.0
覆盖范围:
全球
运营商:
太空探索技术公司
运营商所在国:
美国
制造商(研发单位):
太空探索技术公司
制造商所在国:
美国
使用方式:
暂无
卫星简介
Starlink 计划是 SpaceX 推出的全球卫星互联网项目,通过发射低轨道卫星,为全球尤其是偏远地区提供高速、低延迟的互联网服务。自 2019 年起,Starlink 已部署数千颗卫星,旨在缩小全球数字鸿沟,推动互联网普及。该项目还为军事、航空等行业提供通信支持,带来广泛经济效益。
2D轨道图
3D轨道图
轨道高度分析图
轨道倾角分析图
轨道综合分析图
查看轨道综合分析图
交会数据列表
事件ID 空间交会对象 最接近时刻(TCA) 交会距离 交会风险概率(CRP) 交会风险指数(CRI) 操作
CDM_260906-052104-380306-622021
JY1SAT (43803)
2026-09-06T
05:21:53+0000
2.847 km
极远距离
1.414531E-6 低风险 0.38
CDM_260907-050405-371506-622021
2026-09-07T
05:04:25+0000
2.602 km
极远距离
8.2473E-7 极低风险 0.33